When you browse on this site, cookies collect data to enhance your experience and personalize the content and advertising you see.
Visit our Privacy Policy to learn more. By continuing to use the site, you agree to this use of cookies and data.

Météo par heure à Mizgeya

Ce jour, 10 Juillet, Vendredi

Heure Température Précipitation Vent Pression Humidité
00:00 +12°C° 0 mm 2 m/s 747 mmHg 93%
01:00 +12°C° 0 mm 2 m/s 747 mmHg 93%
02:00 +10°C° 0 mm 2 m/s 748 mmHg 93%
03:00 +12°C° 0 mm 2 m/s 748 mmHg 92%
04:00 +12°C° 0 mm 1 m/s 748 mmHg 91%
05:00 +12°C° 0 mm 1 m/s 749 mmHg 90%
06:00 +14°C° 0 mm 1 m/s 749 mmHg 84%
07:00 +16°C° 0 mm 1 m/s 749 mmHg 78%
08:00 +18°C° 0 mm 1 m/s 749 mmHg 71%
09:00 +18°C° 0 mm 2 m/s 749 mmHg 67%
10:00 +19°C° 0 mm 2 m/s 749 mmHg 64%
11:00 +20°C° 0 mm 2 m/s 749 mmHg 60%
12:00 +21°C° 0 mm 3 m/s 749 mmHg 59%
13:00 +21°C° 0 mm 3 m/s 749 mmHg 59%
14:00 +22°C° 0 mm 3 m/s 749 mmHg 59%
15:00 +22°C° 0 mm 3 m/s 749 mmHg 62%
16:00 +21°C° 0 mm 3 m/s 749 mmHg 66%
17:00 +21°C° 0 mm 3 m/s 749 mmHg 70%
18:00 +20°C° 0 mm 3 m/s 749 mmHg 75%
19:00 +18°C° 0 mm 3 m/s 749 mmHg 80%
20:00 +17°C° 0 mm 3 m/s 749 mmHg 84%
21:00 +16°C° 0 mm 3 m/s 749 mmHg 86%
22:00 +16°C° 0 mm 3 m/s 749 mmHg 87%
23:00 +14°C° 0 mm 3 m/s 749 mmHg 89%

Demain, 11 Juillet, Samedi

Heure Température Précipitation Vent Pression Humidité
00:00 +14°C° 0 mm 3 m/s 749 mmHg 88%
01:00 +14°C° 0 mm 3 m/s 749 mmHg 88%
02:00 +13°C° 0 mm 3 m/s 749 mmHg 88%
03:00 +14°C° 0 mm 3 m/s 749 mmHg 87%
04:00 +14°C° 0 mm 4 m/s 749 mmHg 86%
05:00 +14°C° 0 mm 4 m/s 749 mmHg 85%
06:00 +17°C° 0 mm 4 m/s 749 mmHg 82%
07:00 +19°C° 0 mm 5 m/s 749 mmHg 79%
08:00 +20°C° 0 mm 5 m/s 749 mmHg 76%
09:00 +22°C° 0 mm 5 m/s 749 mmHg 75%
10:00 +23°C° 0 mm 5 m/s 749 mmHg 73%
11:00 +25°C° 0 mm 5 m/s 749 mmHg 71%
12:00 +26°C° 0 mm 5 m/s 749 mmHg 71%
13:00 +26°C° 0 mm 6 m/s 749 mmHg 71%
14:00 +27°C° 0 mm 6 m/s 748 mmHg 71%
15:00 +27°C° 0 mm 5 m/s 748 mmHg 73%
16:00 +26°C° 0 mm 5 m/s 748 mmHg 75%
17:00 +26°C° 0 mm 4 m/s 748 mmHg 77%
18:00 +25°C° 0 mm 4 m/s 748 mmHg 82%
19:00 +24°C° 0 mm 3 m/s 748 mmHg 87%
20:00 +21°C° 0 mm 3 m/s 748 mmHg 92%
21:00 +20°C° 0 mm 3 m/s 748 mmHg 93%
22:00 +20°C° 0 mm 3 m/s 748 mmHg 93%
23:00 +19°C° 0 mm 3 m/s 748 mmHg 94%

Après-demain, 12 Juillet, Dimanche

Heure Température Précipitation Vent Pression Humidité
00:00 +19°C° 0 mm 3 m/s 748 mmHg 94%
01:00 +18°C° 0 mm 3 m/s 748 mmHg 94%
02:00 +18°C° 0 mm 3 m/s 748 mmHg 95%
03:00 +18°C° 0 mm 3 m/s 747 mmHg 94%
04:00 +18°C° 0 mm 3 m/s 747 mmHg 93%
05:00 +19°C° 0 mm 3 m/s 747 mmHg 92%
06:00 +20°C° 0 mm 3 m/s 747 mmHg 87%
07:00 +23°C° 0 mm 2 m/s 747 mmHg 83%
08:00 +24°C° 0 mm 2 m/s 747 mmHg 78%
09:00 +25°C° 0 mm 3 m/s 747 mmHg 75%
10:00 +26°C° 0 mm 3 m/s 747 mmHg 72%
11:00 +27°C° 0 mm 3 m/s 746 mmHg 69%
12:00 +27°C° 0.1 mm 3 m/s 746 mmHg 68%
13:00 +28°C° 0.1 mm 3 m/s 746 mmHg 67%
14:00 +28°C° 0.1 mm 3 m/s 746 mmHg 66%
15:00 +28°C° 0.1 mm 3 m/s 745 mmHg 68%
16:00 +27°C° 0.1 mm 2 m/s 745 mmHg 70%
17:00 +27°C° 0.1 mm 2 m/s 745 mmHg 72%
18:00 +25°C° 0 mm 2 m/s 745 mmHg 76%
19:00 +24°C° 0 mm 1 m/s 745 mmHg 80%
20:00 +22°C° 0 mm 1 m/s 744 mmHg 84%
21:00 +21°C° 0 mm 1 m/s 744 mmHg 85%
22:00 +21°C° 0 mm 1 m/s 744 mmHg 86%
23:00 +19°C° 0 mm 2 m/s 744 mmHg 87%

13 Juillet, Lundi

Heure Température Précipitation Vent Pression Humidité
00:00 +19°C° 0 mm 1 m/s 744 mmHg 86%
01:00 +19°C° 0 mm 1 m/s 744 mmHg 86%
02:00 +18°C° 0 mm 1 m/s 743 mmHg 86%
03:00 +19°C° 0 mm 1 m/s 743 mmHg 85%
04:00 +19°C° 0 mm 1 m/s 743 mmHg 85%
05:00 +19°C° 0 mm 1 m/s 743 mmHg 85%
06:00 +21°C° 0 mm 1 m/s 742 mmHg 80%
07:00 +21°C° 0 mm 2 m/s 742 mmHg 76%
08:00 +24°C° 0 mm 2 m/s 742 mmHg 72%
09:00 +25°C° 0 mm 2 m/s 742 mmHg 70%
10:00 +26°C° 0 mm 3 m/s 742 mmHg 68%
11:00 +27°C° 0 mm 3 m/s 742 mmHg 65%
12:00 +27°C° 0 mm 3 m/s 741 mmHg 65%
13:00 +27°C° 0 mm 2 m/s 741 mmHg 65%
14:00 +27°C° 0 mm 2 m/s 741 mmHg 65%
15:00 +26°C° 1.2 mm 2 m/s 740 mmHg 72%
16:00 +25°C° 1.2 mm 2 m/s 740 mmHg 79%
17:00 +24°C° 1.2 mm 2 m/s 739 mmHg 85%
18:00 +23°C° 1 mm 2 m/s 739 mmHg 87%
19:00 +22°C° 1 mm 1 m/s 739 mmHg 89%
20:00 +21°C° 1 mm 1 m/s 739 mmHg 91%
21:00 +21°C° 0.7 mm 1 m/s 739 mmHg 92%
22:00 +20°C° 0.7 mm 1 m/s 739 mmHg 93%
23:00 +19°C° 0.7 mm 2 m/s 738 mmHg 95%

14 Juillet, Mardi

Heure Température Précipitation Vent Pression Humidité
00:00 +19°C° 0.6 mm 2 m/s 738 mmHg 95%
01:00 +19°C° 0.6 mm 2 m/s 738 mmHg 96%
02:00 +19°C° 0.6 mm 2 m/s 738 mmHg 96%
03:00 +19°C° 1.1 mm 2 m/s 737 mmHg 97%
04:00 +19°C° 1.1 mm 3 m/s 737 mmHg 97%
05:00 +19°C° 1.1 mm 3 m/s 737 mmHg 97%
06:00 +19°C° 0.4 mm 4 m/s 737 mmHg 97%
07:00 +19°C° 0.4 mm 4 m/s 736 mmHg 96%
08:00 +19°C° 0.4 mm 4 m/s 736 mmHg 96%
09:00 +20°C° 0.7 mm 4 m/s 736 mmHg 94%
10:00 +21°C° 0.7 mm 3 m/s 736 mmHg 92%
11:00 +22°C° 0.7 mm 3 m/s 736 mmHg 90%
12:00 +24°C° 1.3 mm 3 m/s 735 mmHg 87%
13:00 +24°C° 1.3 mm 3 m/s 735 mmHg 85%
14:00 +25°C° 1.3 mm 3 m/s 735 mmHg 82%
15:00 +25°C° 0.6 mm 3 m/s 735 mmHg 84%
16:00 +24°C° 0.6 mm 3 m/s 735 mmHg 85%
17:00 +24°C° 0.6 mm 3 m/s 735 mmHg 87%
18:00 +21°C° 0.1 mm 3 m/s 735 mmHg 90%
19:00 +20°C° 0.1 mm 3 m/s 735 mmHg 93%
20:00 +19°C° 0.1 mm 3 m/s 735 mmHg 96%
21:00 +18°C° 0 mm 3 m/s 735 mmHg 95%
22:00 +18°C° 0 mm 3 m/s 735 mmHg 95%
23:00 +17°C° 0 mm 3 m/s 735 mmHg 95%

15 Juillet, Mercredi

Heure Température Précipitation Vent Pression Humidité
00:00 +16°C° 0 mm 3 m/s 735 mmHg 95%
01:00 +16°C° 0 mm 2 m/s 735 mmHg 96%
02:00 +15°C° 0 mm 2 m/s 735 mmHg 97%
03:00 +15°C° 0 mm 2 m/s 735 mmHg 97%
04:00 +15°C° 0 mm 2 m/s 735 mmHg 97%
05:00 +15°C° 0 mm 2 m/s 735 mmHg 97%
06:00 +16°C° 0 mm 2 m/s 735 mmHg 93%
07:00 +17°C° 0 mm 2 m/s 735 mmHg 90%
08:00 +18°C° 0 mm 2 m/s 735 mmHg 86%
09:00 +20°C° 0.2 mm 1 m/s 735 mmHg 84%
10:00 +20°C° 0.2 mm 1 m/s 735 mmHg 83%
11:00 +21°C° 0.2 mm 1 m/s 735 mmHg 81%
12:00 +21°C° 0.9 mm 1 m/s 735 mmHg 79%
13:00 +21°C° 0.9 mm 2 m/s 735 mmHg 78%
14:00 +21°C° 0.9 mm 2 m/s 735 mmHg 76%
15:00 +21°C° 1.7 mm 2 m/s 735 mmHg 79%
16:00 +21°C° 1.7 mm 3 m/s 735 mmHg 82%
17:00 +20°C° 1.7 mm 3 m/s 735 mmHg 85%
18:00 +19°C° 0.9 mm 4 m/s 735 mmHg 88%
19:00 +17°C° 0.9 mm 5 m/s 735 mmHg 91%
20:00 +16°C° 0.9 mm 6 m/s 736 mmHg 94%
21:00 +16°C° 0.4 mm 6 m/s 736 mmHg 95%
22:00 +16°C° 0.4 mm 5 m/s 736 mmHg 95%
23:00 +15°C° 0.4 mm 5 m/s 736 mmHg 96%
Voir plus